Probability
0 0 0 0 0 0 0 0 0 0 0 0 0 0 0 0 0 0 0 0 0 0 0 0 0 0 0 0 0 0 0 0 0 0 0 0 0 0 0 0 0 0 0 0
0 0 0 0 0 0 0 0 0 0 0 0 0 0 0 0 0 0 0 0 0 0 0 0 0 0 0 0 0 0 0 0 0 0 0 0 0 0 0 0 0 0 0 0
0 0 0 0 0 0 0 0 0 0 0 0 0 0 0 0 0 0 0 0 0 0 0 0 0 0 0 0 0 0 0 0 0 0 0 0 0 0 0 0 0 0 0 0
0 0 0 0 0 0 0 0 0 0 0 0 0 0 0 0 0 0 0 0 0 0 0 0 0 0 0 0 0 0 0 0 0 0 0 0 0 0 0 0 0 0 0 0
0 0 0 0 0 0 0 0 0 0 0 0 0 0 0 0 0 0 0 0 0 0 0 0 0 0 0 0 0 0 0 0 0 0 0 0 0 0 0 0 0 0 0 0
0 0 0 0 0 0 0 0 0 0 0 0 0 0 0 0 0 0 0 0 0 0 0 0 0 0 0 0 0 0 0 0 0 0 0 0 0 0 0 0 0 0 0 0
0 0 0 0 0 0 0 0 0 0 0 0 0 0 0 0 0 0 0 0 0 0 0 0 0 0 0 0 0 0 0 0 0 0 0 0 0 0 0 0 0 0 0 0
0 0 0 0 0 0 0 0 0 0 0 0 0 0 0 0 0 0 0 0 0 0 0 0 0 0 0 0 0 0 0 0 0 0 0 0 0 0 0 0 0 0 0 0
0 0 0 0 0 0 0 0 0 0 0 0 0 0 0 0 0 0 0 0 0 0 0 0 0 0 0 0 0 0 0 0 0 0 0 0 0 0 0 0 0 0 0 0
0 0 0 0 0 0 0 0 0 0 0 0 0 0 0 0 0 0 0 0 0 0 0 0 0 0 0 0 0 0 0 0 0 0 0 0 0 0 0 0 0 0 0 0
0 0 0 0 0 0 0 0 0 0 0 0 0 0 0 0 0 0 0 0 0 0 0 0 0 0 0 0 0 0 0 0 0 0 0 0 0 0 0 0 0 0 0 0
0 0 0 0 0 0 0 0 0 0 0 0 0 0 0 0 0 0 0 0 0 0 0 0 0 0 0 0 0 0 0 0 0 0 0 0 0 0 0 0 0 0 0 0
0 0 0 0 0 0 0 0 0 0 0 0 0 0 0 0 0 0 0 0 0 0 0 0 0 0 0 0 0 0 0 0 0 0 0 0 0 0 0 0 0 0 0 0
0 0 0 0 0 0 0 0 0 0 0 0 0 0 0 0 0 0 0 0 0 0 0 0 0 0 0 0 0 0 0 0 0 0 0 0 0 0 0 0 0 0 0 0
0 0 0 0 0 0 0 0 0 0 0 0 0 0 0 0 0 0 0 0 0 0 0 0 0 0 0 0 0 0 0 0 0 0 0 0 0 0 0 0 0 0 0 0
0 0 0 0 0 0 0 0 0 0 0 0 0 0 0 0 0 0 0 0 0 0 0 0 0 0 0 0 0 0 0 0 0 0 0 0 0 0 0 0 0 0 0 0
0 0 0 0 0 0 0 0 0 0 0 0 0 0 0 0 0 0 0 0 0 0 0 0 0 0 0 0 0 0 0 0 0 0 0 0 0 0 0 0 0 0 0 0
0 0 0 0 0 0 0 0 0 0 0 0 0 0 0 0 0 0 0 0 0 0 0 0 0 0 0 0 0 0 0 0 0 0 0 0 0 0 0 0 0 0 0 0
0 0 0 0 0 0 0 0 0 0 0 0 0 0 0 0 0 0 0 0 0 0 0 0 0 0 0 0 0 0 0 0 0 0 0 0 0 0 0 0 0 0 0 0
0 0 0 0 0 0 0 0 0 0 0 0 0 0 0 0 0 0 0 0 0 0 0 0 0 0 0 0 0 0 0 0 0 0 0 0 0 0 0 0 0 0 0 0
0 0 0 0 0 0 0 0 0 0 0 0 0 0 0 0 0 0 0 0 0 0 0 0 0 0 0 0 0 0 0 0 0 0 0 0 0 0 0 0 0 0 0 0
0 0 0 0 0 0 0 0 0 0 0 0 0 0 0 0 0 0 0 0 0 0 0 0 0 0 0 0 0 0 0 0 0 0 0 0 0 0 0 0 0 0 0 0
0 0 0 0 0 0 0 0 0 0 0 0 0 0 0 0 0 0 0 0 0 0 0 0 0 0 0 0 0 0 0 0 0 0 0 0 0 0 0 0 0 0 0 0
0 0 0 0 0 0 0 0 0 0 0 0 0 0 0 0 0 0 0 0 0 0 0 0 0 0 0 0 0 0 0 0 0 0 0 0 0 0 0 0 0 0 0 0
0 0 0 0 0 0 0 0 0 0 0 0 0 0 0 0 0 0 0 0 0 0 0 0 0 0 0 0 0 0 0 0 0 0 0 0 0 0 0 0 0 0 0 0
0 0 0 0 0 0 0 0 0 0 0 0 0 0 0 0 0 0 0 0 0 0 0 0 0 0 0 0 0 0 0 0 0 0 0 0 0 0 0 0 0 0 0 0
0 0 0 0 0 0 0 0 0 0 0 0 0 0 0 0 0 0 0 0 0 0 0 0 0 0 0 0 0 0 0 0 0 0 0 0 0 0 0 0 0 0 0 0
Wind_Speed
6 4 3 6 8 10 12 11 10 10 10 15 11 8 7 6 5 4 4 5 6 6 6 5 5 5 6 6 6 7 7 7 7 6 5 5 5 5 4 4 5 4 4 4
4 3 4 7 11 12 13 11 12 11 16 14 9 6 6 6 5 6 6 7 6 6 5 5 6 6 5 6 6 6 7 7 6 5 5 5 5 5 4 4 4 4 4 5
4 3 3 11 13 15 10 11 11 15 16 7 6 7 8 7 7 8 8 7 7 6 6 6 6 5 6 5 4 6 6 6 6 6 6 6 5 5 5 5 4 4 4 4
1 1 8 10 3 10 11 11 13 11 10 8 8 6 6 6 7 8 7 6 6 5 5 4 3 3 3 3 4 5 5 4 5 5 6 5 5 5 5 4 4 4 4 4
3 4 11 10 4 6 8 9 10 14 14 9 4 4 6 5 5 7 6 6 5 5 4 3 3 4 4 3 4 4 4 4 4 5 5 5 6 5 5 4 4 4 3 4
4 4 9 7 2 3 3 7 5 9 11 6 1 3 6 3 3 4 3 3 2 2 1 2 3 4 5 4 4 5 5 4 4 5 5 6 6 5 4 4 4 4 3 3
6 7 12 8 2 5 4 7 1 5 7 5 7 7 3 2 2 2 2 1 1 1 2 3 3 4 5 4 5 4 3 3 3 4 4 5 4 4 4 4 3 3 3 3
7 7 13 4 7 8 7 2 1 2 3 5 6 4 3 3 3 2 1 1 0 1 1 1 2 4 4 4 3 2 3 3 3 3 3 3 4 3 3 4 3 3 3 2
12 12 4 5 6 4 1 2 2 2 3 3 4 4 4 3 3 2 2 1 0 1 1 0 1 3 4 2 1 3 4 3 3 3 3 3 4 4 3 3 3 3 3 3
6 9 6 4 4 4 2 3 3 3 3 2 3 4 4 3 3 2 2 1 0 1 1 0 0 0 1 0 2 3 4 3 3 3 3 2 2 3 3 4 4 4 4 4
7 7 5 4 4 6 5 4 4 4 2 2 3 4 3 3 3 3 2 1 0 1 2 1 0 0 1 1 2 2 3 2 2 2 2 2 2 3 3 4 4 5 4 4
8 5 4 4 3 3 3 4 5 4 4 3 2 4 3 3 2 2 1 1 0 1 1 0 0 0 1 0 1 2 2 2 2 2 2 2 2 1 3 4 5 6 6 5
5 4 4 3 3 3 2 3 3 2 3 4 4 3 3 3 2 1 1 1 1 2 1 1 0 0 0 0 1 2 3 2 2 2 2 2 2 2 2 3 4 6 7 7
4 3 3 4 4 4 3 3 3 3 3 3 3 3 2 2 2 2 2 2 1 0 1 1 1 1 1 1 1 2 2 2 2 2 3 3 3 3 3 3 3 3 5 7
5 4 5 4 4 4 4 3 3 4 4 4 4 3 3 3 3 3 2 0 1 1 0 0 1 2 1 1 2 2 2 2 2 2 2 2 2 2 2 3 3 3 2 3
5 4 3 3 4 5 4 4 4 5 4 4 4 4 3 3 3 3 2 1 1 1 1 2 3 3 1 1 2 2 2 2 2 2 2 2 2 3 3 3 3 3 3 3
3 4 4 5 5 5 4 4 4 5 5 4 4 4 3 2 2 2 2 1 1 1 1 2 3 1 1 1 2 2 2 2 2 2 2 2 2 3 3 3 3 4 4 4
4 5 4 4 5 5 5 4 4 4 5 5 4 3 2 2 3 3 3 1 1 2 2 3 2 1 1 2 2 1 1 2 2 2 2 2 3 2 3 3 4 4 4 4
3 4 4 4 4 3 4 4 4 4 4 4 3 2 2 3 3 2 1 1 1 3 4 3 2 1 2 2 1 1 1 2 2 2 2 2 2 3 3 3 4 4 3 3
3 3 3 3 3 3 3 4 4 4 3 3 2 2 3 3 2 1 1 2 2 2 3 2 1 1 2 2 1 1 2 2 2 2 2 3 3 3 3 4 4 4 4 4
3 3 3 3 4 3 3 3 3 4 4 3 2 3 3 3 2 1 1 3 3 2 2 2 1 1 1 2 2 2 2 2 3 3 3 3 4 4 4 4 4 4 4 4
3 3 3 3 4 4 4 3 3 3 3 3 3 3 3 2 2 1 2 3 3 3 2 2 2 2 2 2 2 2 2 3 3 3 3 3 4 4 5 5 5 5 4 5
2 2 3 3 3 4 4 3 3 3 3 3 3 3 3 3 2 2 4 3 3 4 3 2 3 3 2 1 2 2 3 3 3 4 4 4 4 5 5 5 5 5 5 5
2 2 3 3 2 2 3 4 3 3 3 3 3 3 3 3 3 2 3 4 4 4 3 3 4 3 2 1 2 2 3 3 4 4 4 4 4 4 4 5 5 4 5 5
2 2 2 2 2 2 3 4 3 3 3 3 3 3 2 2 3 3 3 3 4 4 3 3 4 3 2 2 2 3 3 3 4 4 4 4 4 4 4 4 5 4 4 4
2 2 2 2 2 2 2 2 3 3 3 4 4 3 3 2 2 3 3 3 3 3 3 3 2 2 2 2 2 3 3 3 3 4 4 4 5 4 4 4 5 4 4 4
2 2 2 2 2 2 2 2 2 3 3 3 4 4 4 3 3 3 3 3 3 3 3 2 2 2 2 2 2 3 3 3 3 3 3 4 3 4 4 5 4 4 4 4
Wind_Direction
257 263 219 226 221 199 205 211 214 237 241 259 264 261 262 262 260 257 256 248 235 231 234 231 225 222 211 205 197 190 189 193 200 192 183 178 179 178 175 179 186 184 178 185
277 259 246 257 239 218 222 226 238 259 266 256 261 265 263 256 246 247 251 246 241 236 233 229 222 218 210 204 197 186 192 198 192 177 176 179 181 176 173 180 181 177 186 190
261 310 323 267 227 201 209 212 201 227 244 261 263 253 246 244 240 241 245 244 238 231 228 227 222 210 207 202 185 182 193 191 183 176 179 183 179 174 181 185 178 184 193 190
226 48 242 246 190 187 209 230 215 235 254 251 248 261 256 236 231 245 245 242 239 233 230 227 215 201 188 169 168 175 182 181 178 176 181 178 173 180 184 177 179 188 194 191
164 236 273 286 231 177 196 255 219 229 251 262 278 306 279 243 227 234 236 236 232 225 220 211 200 184 161 162 165 168 181 185 182 178 178 176 180 184 181 173 178 187 186 188
169 206 242 252 182 158 136 274 236 214 240 246 168 266 269 267 245 254 257 243 231 213 197 196 199 166 160 172 173 191 197 192 181 178 179 183 185 180 173 174 184 184 193 195
198 228 259 258 180 133 178 250 275 207 227 207 207 228 274 326 301 273 272 270 219 171 192 210 184 160 169 177 199 205 179 163 167 176 182 181 174 165 166 171 171 181 192 200
176 210 250 203 146 185 225 286 294 254 244 230 239 261 295 313 308 302 311 320 186 178 230 223 160 164 180 202 209 164 148 154 167 172 174 168 164 164 165 168 174 188 193 209
194 215 245 172 200 228 300 276 285 288 287 264 264 274 285 295 293 299 300 308 320 189 207 54 149 168 189 218 155 146 147 159 164 161 165 165 168 172 171 176 187 200 203 217
240 259 258 245 265 291 281 269 283 284 291 275 264 276 282 287 291 296 303 302 343 127 150 233 180 165 224 157 135 152 163 166 163 164 164 166 178 182 185 190 196 204 211 219
245 271 298 278 261 268 277 288 295 293 288 273 266 275 273 279 280 280 292 320 103 171 197 224 177 18 7 52 130 161 168 163 165 170 172 178 194 205 206 210 204 202 211 209
231 233 231 258 294 297 281 284 284 291 304 304 271 274 280 276 279 284 288 308 255 226 225 259 104 24 28 98 159 165 172 180 184 181 182 187 199 246 249 237 236 233 233 226
253 263 234 270 317 341 312 302 307 296 294 305 309 295 291 297 308 317 312 288 235 229 229 215 164 294 335 143 168 181 193 193 189 187 192 198 203 214 248 275 260 249 248 247
291 306 285 285 287 315 321 327 338 339 333 331 328 335 326 317 329 318 282 256 241 192 193 191 203 259 280 165 171 202 210 207 206 204 202 204 209 217 221 229 252 269 267 258
292 271 260 293 329 344 349 351 347 333 339 340 342 340 337 320 303 297 304 353 89 87 344 219 244 276 294 181 183 200 206 217 223 227 215 208 208 215 223 231 240 258 279 277
294 286 292 301 303 317 333 334 315 308 317 322 329 324 319 312 314 328 346 57 120 220 262 255 261 274 247 202 200 205 220 228 214 211 212 215 212 214 223 231 238 244 250 256
295 292 295 298 300 304 303 296 293 297 306 309 306 310 319 332 335 329 323 284 216 244 267 262 273 294 229 212 208 223 226 226 214 215 221 222 223 227 231 231 236 243 250 253
250 262 267 271 283 291 300 303 301 300 297 298 306 317 317 299 286 292 298 297 312 314 306 288 286 274 237 227 212 219 217 221 217 221 227 229 232 234 233 237 241 246 257 261
291 289 293 295 292 292 299 302 302 298 297 303 308 297 285 276 276 291 317 331 289 294 305 302 304 279 254 251 211 208 218 224 234 236 232 236 235 237 238 241 246 250 255 255
313 311 309 311 316 308 301 304 307 309 307 303 300 302 300 292 285 280 272 254 255 275 301 301 268 247 248 241 220 217 221 224 230 240 239 232 235 239 241 244 247 250 250 250
313 316 319 320 319 317 309 310 312 311 315 311 290 284 288 296 295 277 282 285 299 313 308 285 268 268 258 249 219 220 221 226 232 238 242 243 242 242 241 242 244 246 247 250
313 318 319 320 319 319 322 325 318 315 321 320 311 302 305 310 314 303 271 267 302 321 319 293 282 280 282 261 223 227 233 236 238 240 243 245 244 244 244 244 245 247 247 247
313 318 320 318 313 312 324 331 326 322 318 313 309 305 299 296 295 283 292 299 307 306 307 289 290 290 289 257 233 232 235 237 240 241 243 246 247 246 247 247 246 247 249 250
322 328 322 320 331 340 333 328 328 325 317 311 307 302 298 299 300 278 281 301 305 300 298 294 293 290 283 260 250 248 246 245 246 248 249 251 251 249 247 247 249 249 248 250
323 330 335 342 341 322 311 320 331 334 333 326 323 319 306 287 280 298 304 299 300 304 303 304 304 295 275 261 256 257 256 254 253 253 250 250 252 251 249 247 247 250 250 250
330 329 321 316 309 309 318 329 329 327 328 326 326 326 322 315 302 300 304 305 305 303 300 298 293 288 279 275 271 269 270 273 269 261 257 256 254 251 251 252 251 251 252 254
334 334 334 334 333 330 329 325 317 315 315 311 312 318 323 327 326 323 320 318 317 313 307 305 302 293 287 289 288 287 286 284 281 279 274 266 260 257 256 255 256 255 256 255